Theta_e
316 315 314 313 313 313 313 313 313 313 314 314 314 314 314 314 314 314 314 314 317 319 319 320 321 321 315 303 303 312 332 328 324 315 313 306 298 296 293 294 297 293 296 297 296 294 292
313 314 314 313 313 313 312 313 313 312 313 313 313 313 313 313 314 314 314 313 317 318 319 320 320 321 309 294 305 318 319 319 314 308 310 304 301 299 295 295 295 296 297 295 296 295 294
313 312 312 312 313 312 312 312 312 311 312 313 312 312 312 312 313 313 313 315 318 318 319 319 320 317 306 301 310 319 319 314 312 308 305 306 304 298 296 293 298 296 293 295 295 294 291
312 312 312 312 312 312 312 311 311 310 311 312 312 311 311 311 312 312 313 317 317 318 319 319 320 311 300 309 309 315 313 310 314 310 306 307 305 300 296 296 295 292 291 287 294 295 294
312 312 311 310 311 311 310 311 310 310 310 310 311 310 310 310 311 311 313 317 317 317 317 319 312 305 296 311 307 311 311 308 311 307 305 307 302 296 295 290 286 287 283 286 290 296 292
311 310 310 310 309 310 309 309 309 309 309 309 308 309 309 309 310 311 313 317 317 316 316 317 313 300 300 297 306 311 307 308 302 301 300 298 295 290 288 287 282 283 284 285 287 288 286
308 309 309 309 308 308 309 309 308 308 308 308 308 308 308 308 309 310 313 313 306 304 307 299 299 297 298 303 309 305 306 302 300 296 290 293 288 285 288 289 288 288 286 286 287 288 283
308 308 308 308 308 307 307 307 307 307 308 308 307 307 307 308 309 310 309 307 304 303 296 303 305 302 302 305 300 302 305 297 295 289 292 289 286 290 292 291 290 288 286 283 285 285 282
308 307 307 307 307 307 306 306 307 307 307 307 307 307 307 307 308 306 305 307 312 308 294 299 302 301 300 301 298 299 302 296 292 289 289 286 289 293 292 290 288 287 285 285 284 281 281
307 306 305 306 306 306 306 306 306 307 307 306 307 307 307 307 301 304 299 308 311 308 286 291 296 300 300 300 295 303 303 297 293 289 289 288 292 291 290 289 289 284 290 289 283 283 278
305 305 305 306 306 305 305 306 306 306 306 306 307 309 306 307 303 301 306 311 305 304 276 293 296 304 300 296 296 296 301 297 290 290 290 288 289 289 288 290 290 288 292 288 287 284 280
305 305 305 305 305 305 305 305 305 306 306 306 307 309 306 304 305 306 309 309 305 287 275 291 296 294 293 294 295 297 296 298 297 292 290 290 294 292 291 292 292 293 290 288 286 284 278
305 305 304 304 304 304 305 305 305 305 306 306 306 308 307 309 301 302 309 303 285 279 291 289 290 294 292 291 292 293 292 290 287 283 283 288 289 291 293 289 291 290 286 278 277 278 277
304 303 303 304 304 304 304 304 304 305 305 305 306 307 307 308 299 304 307 295 279 285 288 295 293 292 289 291 290 290 289 286 289 287 284 282 280 289 292 289 288 287 287 280 276 276 278
303 303 303 303 303 303 304 304 304 304 305 305 305 302 298 297 300 306 299 284 283 286 289 289 292 287 287 291 290 289 286 287 289 290 285 282 284 289 290 291 292 287 285 289 282 281 278
303 303 303 303 303 303 303 303 303 304 305 306 296 298 292 301 305 302 293 287 287 290 290 290 286 289 285 288 288 287 286 285 286 287 287 286 282 286 289 291 290 288 290 284 282 277 275
302 302 302 302 302 301 302 302 303 303 305 305 297 293 293 305 304 298 288 285 287 291 292 289 286 285 287 287 289 286 285 282 283 286 286 285 284 281 287 280 282 286 285 285 285 282 277
301 302 301 301 301 301 301 301 302 303 304 295 292 285 293 302 290 291 287 285 288 286 288 290 289 286 283 284 287 281 282 282 284 283 283 283 281 276 277 281 282 281 280 282 282 279 278
301 301 300 300 300 300 300 300 301 302 302 288 283 283 293 297 282 281 282 283 283 284 282 284 288 287 286 282 281 279 279 283 285 283 281 281 277 273 275 278 280 277 277 278 280 280 277
300 299 299 299 300 299 299 299 300 301 301 289 283 280 285 290 288 286 282 282 280 283 281 281 282 284 282 283 282 277 277 281 284 284 288 285 276 274 275 276 278 275 274 276 275 274 271
299 299 299 299 299 299 299 298 299 301 300 287 280 278 280 279 282 283 286 282 279 279 282 281 278 282 283 280 279 278 278 279 281 283 281 282 273 275 274 275 273 272 272 273 270 266 270
299 299 298 298 299 298 298 298 298 299 298 282 277 277 280 278 279 277 280 279 279 278 279 278 277 279 282 280 282 278 278 279 280 280 278 280 273 274 271 273 272 268 269 270 269 266 264
298 298 298 298 298 298 298 298 298 298 294 280 280 281 279 279 277 276 275 277 279 279 279 280 279 277 276 277 280 281 281 280 279 278 276 277 275 271 266 271 271 267 263 267 265 264 266
298 298 298 298 298 297 298 297 297 297 294 284 283 283 277 274 276 277 278 279 278 278 277 279 279 277 279 283 282 281 280 278 278 277 278 275 274 271 267 270 264 261 266 266 263 262 263
298 299 298 297 297 297 297 297 297 297 297 289 285 280 277 273 276 277 277 277 277 277 277 278 279 280 283 279 276 275 274 275 274 276 276 277 273 266 265 262 262 260 264 263 263 261 258
297 297 297 297 296 296 297 296 296 296 297 287 286 283 280 275 274 276 275 275 274 273 274 277 281 282 281 279 277 265 266 271 269 272 276 276 275 270 264 261 261 260 261 260 259 261 261
296 296 296 296 295 296 296 296 295 295 296 287 286 284 282 275 275 275 274 274 276 275 274 276 277 277 279 276 273 266 266 273 266 267 268 269 268 264 264 256 258 258 258 259 261 263 260
296 296 295 295 295 296 295 295 295 295 295 291 286 284 281 275 275 276 276 273 274 275 273 277 276 276 275 273 272 270 267 267 264 264 263 265 264 262 261 258 259 259 259 261 259 253 256
295 295 295 294 294 295 295 295 294 296 295 293 283 287 284 276 276 280 279 278 277 276 276 278 277 277 278 275 271 268 262 262 262 259 264 261 259 261 257 258 255 254 256 252 253 256 251
Wind_Speed
19 18 19 19 18 18 17 17 16 17 17 16 16 15 14 13 12 11 10 9 9 6 6 6 8 10 5 3 9 6 2 18 9 9 8 7 6 6 6 6 6 4 7 11 16 24 23
18 17 16 18 17 18 18 19 19 17 17 17 16 16 15 14 13 12 10 9 9 5 6 8 9 8 1 4 5 4 10 9 8 7 6 6 7 6 5 6 7 8 13 20 14 16 8
20 21 21 20 21 19 19 19 18 18 18 17 16 16 16 15 14 13 12 10 10 5 8 9 9 5 2 10 3 6 11 7 7 8 8 4 2 6 4 4 6 10 10 11 6 7 12
19 19 19 19 20 20 19 18 18 18 19 18 17 16 16 16 15 15 13 15 2 7 9 9 9 2 7 4 3 5 5 4 6 5 3 5 5 5 2 2 4 8 10 6 5 9 5
20 19 19 20 20 20 20 20 19 18 18 18 17 16 16 15 15 14 12 11 5 9 8 9 4 1 7 3 4 4 6 6 6 3 3 4 4 3 3 5 4 1 5 6 3 5 5
18 20 20 20 20 20 21 20 20 20 19 18 18 17 16 14 13 12 12 5 9 9 5 4 1 0 5 5 4 5 4 10 4 7 6 4 4 4 2 4 12 9 6 4 7 4 15
18 20 20 21 21 21 21 21 20 20 19 18 18 17 15 14 11 9 5 4 4 2 5 7 8 4 1 0 4 4 6 6 4 7 5 3 4 10 8 6 4 8 5 8 5 13 13
20 19 20 20 21 21 20 21 21 21 20 20 20 17 15 12 10 8 2 3 2 1 4 13 6 7 4 3 5 5 8 7 5 7 6 4 9 7 5 5 7 2 5 6 12 11 13
19 20 21 22 21 22 22 23 23 22 22 21 20 17 13 9 7 3 3 6 3 8 2 3 9 5 5 4 5 11 12 5 5 6 7 8 6 10 8 5 7 5 7 14 9 13 15
20 21 20 22 23 22 22 24 25 24 24 22 19 15 9 5 1 2 4 7 6 1 3 5 7 7 6 5 2 5 8 7 4 12 8 5 6 12 7 9 8 5 7 16 20 6 5
19 20 22 23 23 24 24 24 25 26 25 22 17 13 5 8 2 3 1 5 4 2 2 4 4 1 6 7 5 2 3 2 7 7 8 9 7 6 6 8 8 7 12 17 13 6 8
22 22 22 23 24 25 25 27 26 27 26 22 17 13 3 3 1 5 7 4 2 3 8 4 5 6 7 4 2 3 4 2 2 4 2 7 2 6 10 3 9 7 8 6 3 3 4
21 22 22 23 25 26 27 28 28 28 27 22 15 10 4 2 1 4 3 2 3 4 2 4 5 7 8 5 4 4 12 8 6 6 5 2 2 1 3 4 3 5 7 3 2 3 5
21 22 24 25 25 27 28 29 30 29 26 20 15 6 4 3 3 4 1 2 4 3 1 2 4 8 7 7 3 6 9 11 4 3 4 7 3 7 3 5 7 7 9 7 7 6 5
21 23 24 25 26 28 29 31 32 30 25 20 10 1 1 3 2 2 2 5 4 1 2 6 5 6 3 3 5 5 7 11 6 5 6 6 5 1 2 1 3 6 7 5 6 2 4
23 23 24 26 28 29 30 32 33 32 25 11 2 2 2 1 2 3 1 5 4 2 1 1 1 5 6 11 5 7 11 1 5 2 1 4 3 1 1 1 1 3 3 2 2 7 6
21 24 25 27 28 29 31 32 34 33 28 5 3 3 3 2 1 2 5 3 1 1 0 4 3 3 2 6 7 6 7 2 2 2 2 2 4 1 1 5 1 1 3 2 3 4 5
23 24 25 27 29 30 32 32 34 34 28 9 2 3 3 1 2 1 2 0 2 1 4 2 4 2 3 5 3 3 6 2 2 1 7 0 5 3 0 2 3 2 1 1 4 5 1
22 24 26 27 28 30 32 34 35 35 26 2 2 1 3 1 2 2 1 2 2 1 2 1 4 1 3 1 2 2 3 2 2 2 5 5 1 4 1 1 1 2 3 1 2 2 3
21 24 25 26 28 30 31 33 35 36 27 3 2 2 4 3 1 2 4 4 3 1 1 2 0 1 4 3 3 4 2 1 2 2 6 5 5 2 7 2 3 5 3 3 2 3 4
22 23 25 25 27 28 30 31 34 34 29 4 4 0 1 2 1 2 1 1 2 4 2 1 2 5 5 5 2 4 3 1 3 1 3 4 6 4 8 6 7 6 6 3 4 2 3
21 22 23 24 26 28 28 30 32 34 25 6 3 3 5 1 3 4 2 5 7 2 3 3 4 1 6 5 4 8 6 6 5 0 3 2 5 3 5 7 7 7 7 11 8 5 8
19 21 21 23 25 26 27 28 29 29 16 4 3 3 1 3 2 0 2 2 3 7 2 1 6 4 3 2 6 10 8 7 4 5 5 5 9 4 3 6 4 2 2 3 5 4 2
20 19 21 23 24 25 26 26 27 25 13 2 2 1 2 3 2 1 4 2 0 2 3 2 4 4 3 11 7 8 12 12 13 11 3 7 5 4 4 3 2 1 3 3 10 4 4
17 18 19 21 23 24 24 25 25 24 19 3 2 2 2 1 3 3 6 2 2 5 3 2 3 2 10 1 3 3 3 4 6 6 8 4 5 5 7 2 3 2 5 6 3 1 1
19 20 20 21 22 23 23 23 23 21 18 3 2 2 1 1 2 6 4 2 1 2 3 3 4 4 4 1 2 4 4 3 2 3 5 7 6 5 3 6 7 3 1 3 2 0 8
18 19 20 20 21 22 22 22 21 19 17 3 1 2 2 3 3 4 1 2 4 2 2 1 1 1 3 0 2 3 1 1 4 4 3 3 4 4 3 4 5 4 3 1 5 5 7
19 18 18 20 21 22 21 21 20 16 16 6 1 3 3 3 3 6 5 4 4 3 2 2 3 1 1 1 2 2 3 1 5 1 0 3 5 2 3 5 3 6 4 4 3 3 5
17 19 19 19 20 21 21 21 19 20 11 6 2 2 4 5 2 1 2 2 2 5 3 3 1 1 1 2 2 4 3 3 4 2 3 1 2 5 2 3 2 1 1 0 2 6 4
Wind_Direction
5 4 358 353 352 349 347 345 344 343 342 340 339 341 336 334 334 329 325 319 303 285 219 196 162 172 134 192 254 274 127 168 145 146 157 160 138 153 164 183 145 151 99 65 95 85 83
2 356 359 2 353 352 348 348 347 343 340 337 337 337 334 334 335 330 327 317 301 277 196 181 170 172 59 223 240 159 132 136 148 144 164 142 185 195 163 175 162 183 106 122 109 110 93
5 358 352 354 350 352 350 347 343 341 340 339 338 336 333 333 333 328 333 318 288 233 177 168 178 160 223 236 1 147 154 179 158 154 151 197 195 159 163 141 221 122 111 104 153 132 131
2 2 357 358 354 351 349 346 342 342 338 338 338 334 331 330 333 335 333 329 297 159 153 162 179 145 248 249 147 134 121 118 145 139 105 178 193 187 196 202 99 135 123 130 226 186 125
6 357 360 356 357 353 350 346 345 341 337 334 334 332 330 328 330 329 331 330 104 121 146 166 109 126 261 312 153 184 139 156 145 134 217 152 142 179 75 107 54 26 162 123 172 13 111
4 0 1 356 355 351 349 346 343 341 337 333 332 330 326 323 324 326 320 301 125 126 165 143 284 78 265 225 159 155 170 125 148 133 97 112 70 137 75 130 191 179 137 138 143 75 62
3 1 356 356 352 352 349 346 344 337 334 331 329 326 321 315 314 309 337 143 132 118 241 190 189 225 174 217 95 159 141 95 85 73 142 159 135 200 191 170 140 143 142 120 75 122 79
2 360 357 355 354 348 352 345 342 339 337 332 326 322 315 308 307 302 282 236 184 250 241 234 238 272 283 184 115 168 128 123 136 163 122 80 226 207 179 173 197 137 120 80 79 108 91
2 0 359 358 351 353 349 346 344 341 337 332 326 318 308 301 291 305 247 220 83 19 257 209 194 202 206 140 182 188 157 135 132 140 172 166 226 171 174 182 191 194 165 174 144 104 73
2 0 0 355 354 353 353 350 344 341 338 334 327 314 304 273 262 195 237 267 277 198 4 214 178 229 147 136 219 180 170 143 153 187 153 215 227 172 173 211 159 193 192 144 141 153 173
6 359 4 358 355 355 353 353 346 341 339 337 332 320 285 207 336 210 300 311 216 65 267 135 160 130 141 154 137 179 148 112 169 171 138 230 189 151 180 196 155 219 136 150 163 138 114
6 7 4 358 359 354 355 352 350 344 341 339 337 333 184 192 228 256 304 328 111 80 253 179 146 159 131 144 94 114 123 77 187 143 160 205 205 171 191 141 169 156 92 56 64 106 236
10 5 3 2 3 357 356 353 350 347 342 336 338 340 178 161 245 308 313 65 97 202 342 172 183 163 159 148 124 161 173 177 172 135 174 147 206 215 135 108 110 133 115 108 155 213 220
10 6 6 4 2 359 356 355 351 350 345 337 330 324 246 246 322 341 107 5 201 208 292 331 134 136 186 139 155 170 144 189 248 122 137 152 220 179 181 177 177 184 178 159 186 184 169
7 11 7 3 3 360 358 356 353 350 348 335 325 75 317 287 239 107 166 190 250 239 340 341 87 146 210 190 135 140 181 198 189 192 171 156 216 38 68 79 143 205 210 168 102 81 117
6 12 9 5 3 2 360 357 356 352 351 352 75 85 309 340 137 77 204 207 189 207 210 326 325 196 180 182 145 163 169 164 186 178 227 182 117 315 97 8 353 177 176 145 43 172 215
11 10 9 6 3 2 2 359 358 356 352 66 67 53 272 95 74 144 223 199 89 37 264 55 3 311 293 178 176 197 181 20 30 131 74 128 108 220 135 16 181 158 189 201 158 169 188
9 9 8 6 5 3 2 1 360 359 352 42 68 61 293 54 123 309 198 338 312 351 349 154 147 26 327 350 172 145 185 59 331 250 153 150 105 118 155 332 29 64 82 305 177 204 78
12 10 7 7 6 3 3 1 0 1 -0 3 65 237 316 91 152 260 307 333 26 315 325 169 223 199 136 39 187 92 103 350 1 99 157 169 123 97 35 273 48 85 15 309 108 49 189
13 11 10 8 8 7 6 2 359 358 358 81 66 35 329 37 127 180 191 208 211 286 289 308 216 64 122 180 13 134 116 341 327 99 77 97 80 150 188 142 111 142 51 26 85 123 161
15 14 15 11 10 9 8 6 3 -0 354 85 24 170 185 290 311 315 143 130 174 193 177 211 255 220 163 178 140 167 116 175 47 27 73 91 108 106 57 61 84 75 53 21 90 102 143
13 16 13 11 10 11 8 10 8 6 360 71 66 20 348 257 300 282 324 216 199 180 177 228 233 131 182 200 222 178 156 194 174 24 90 47 120 102 61 64 81 87 41 78 83 101 75
13 14 11 14 12 10 6 12 12 12 26 58 331 333 101 322 353 59 265 314 221 145 37 310 156 109 92 55 96 101 120 92 100 142 144 133 140 133 136 131 124 33 349 51 99 46 99
8 11 11 12 10 7 6 10 10 10 44 95 307 328 15 288 42 331 326 30 215 274 154 26 80 105 149 148 101 76 79 68 55 38 39 126 100 84 119 136 204 72 352 269 111 52 55
11 16 12 7 7 4 2 7 7 6 23 48 351 56 25 322 316 12 2 109 45 28 52 36 327 227 165 150 104 105 23 40 7 22 20 70 110 105 136 118 346 306 199 165 166 220 232
8 9 7 5 4 1 359 3 4 360 6 42 70 148 92 59 23 307 293 193 126 78 9 2 346 53 59 105 139 136 173 138 162 39 15 64 66 103 121 133 190 213 196 159 159 32 173
4 3 4 4 360 354 359 358 0 354 356 71 318 75 107 100 354 338 333 304 345 83 107 49 26 50 52 162 105 130 140 53 150 133 178 52 23 106 104 111 294 227 190 191 100 208 140
3 8 357 360 354 351 356 357 355 351 349 9 318 32 114 90 14 29 18 21 344 3 142 161 95 311 78 186 129 152 110 106 85 33 53 134 120 125 90 91 233 167 77 135 193 11 118
1 359 360 356 348 352 352 356 347 348 335 26 41 32 56 81 124 2 317 92 357 265 284 306 103 56 4 101 57 85 86 61 145 166 25 93 142 145 109 178 310 323 132 356 115 126 191